Theta_e
304 304 305 305 305 305 306 308 310 310 310 311 311 311 312 312 312 312 311 311 311 311 310 309 309 309 309 309 309 309 309 309 311 312 311 311 311 310 312 316 319 317 315 319 322 322 318 316 316 318 335 347 348 349 350 352 352 352 353 357 355 355 360 360 360 360 359 359 357 356 356 354 355 355 352 352 352 350 351 350 349 349 347 345 345 346 345 344
305 305 304 305 305 305 306 307 308 310 310 311 311 311 311 312 312 312 311 312 312 311 310 310 309 308 309 309 309 309 309 313 318 319 315 312 312 311 312 316 320 318 316 320 321 321 317 315 318 319 332 345 347 349 350 351 352 352 353 355 356 357 358 356 356 358 356 359 356 356 357 354 355 353 352 354 353 351 351 350 348 349 348 347 344 344 345 345
307 306 305 305 305 305 306 306 308 309 310 311 311 311 311 312 312 312 312 312 311 311 310 310 309 309 309 309 309 308 310 321 325 322 318 314 312 311 312 317 322 319 316 320 321 320 316 315 319 319 331 341 344 348 349 350 352 353 353 355 358 356 354 352 355 356 356 357 355 357 357 354 354 352 352 354 353 352 351 350 349 349 348 347 345 344 346 346
307 307 307 306 305 305 306 306 306 308 310 310 311 311 311 311 312 312 312 312 312 310 308 309 308 309 309 308 309 308 314 327 326 319 319 315 312 311 313 319 323 321 317 320 320 319 316 316 320 322 332 338 340 345 344 347 351 351 353 356 357 352 353 356 354 355 356 355 356 357 357 355 354 352 353 352 353 354 350 349 349 349 348 347 345 344 346 345
307 307 307 306 305 305 305 306 306 307 309 310 311 311 311 311 312 312 312 312 312 310 308 308 308 308 309 308 309 309 319 331 325 319 321 316 312 311 313 320 324 323 319 319 319 319 317 316 323 327 334 336 336 339 339 342 346 347 349 352 351 349 351 355 354 355 356 355 356 356 355 356 354 352 353 352 353 354 350 349 349 348 347 345 344 344 346 345
306 306 307 306 305 305 305 306 306 307 308 310 310 311 311 311 312 312 312 312 312 309 308 308 308 308 309 309 309 311 321 330 324 320 321 318 316 313 314 321 324 323 320 319 319 319 317 318 326 331 335 335 335 338 339 340 342 343 345 344 346 347 348 351 355 355 354 354 355 355 354 354 353 354 354 351 352 352 350 350 348 348 347 343 343 344 346 345
305 305 305 305 305 305 305 306 306 307 308 309 310 311 311 311 311 312 312 312 311 309 308 307 308 308 308 308 310 312 319 325 323 320 321 320 319 316 316 320 323 322 320 320 320 319 319 321 329 333 334 335 336 337 338 340 340 343 344 342 341 343 343 348 355 355 354 355 355 355 354 353 353 355 355 352 352 351 351 350 349 348 347 344 344 346 346 345
307 307 306 306 306 306 306 306 307 308 309 310 311 311 311 311 312 312 312 312 311 308 308 308 307 308 308 309 312 316 320 323 323 320 320 320 319 318 317 319 321 321 319 319 320 319 322 325 331 334 333 335 336 335 337 338 340 342 343 342 340 340 339 345 354 355 354 354 355 354 354 354 353 354 355 353 352 351 351 350 349 349 347 346 346 347 347 346
310 310 310 309 309 309 309 309 310 310 311 312 312 312 312 312 312 312 312 312 311 308 308 308 308 308 309 309 314 320 323 322 321 320 321 320 319 319 318 319 319 320 318 316 318 321 325 327 331 335 334 333 333 333 333 338 342 341 341 341 339 338 338 346 354 354 354 354 355 354 355 355 353 354 354 353 352 351 351 350 349 349 348 348 348 348 348 347
311 312 312 312 312 312 312 312 313 313 313 313 313 313 312 312 312 312 313 312 310 308 307 308 308 308 310 310 316 323 322 322 321 319 320 319 321 321 319 319 318 319 320 317 317 322 326 326 330 334 332 332 332 331 331 336 340 336 334 335 333 332 337 349 355 354 354 355 355 354 356 356 353 355 357 353 352 351 351 350 349 349 348 348 349 349 349 348
311 312 312 313 313 313 314 314 314 314 314 314 313 313 313 312 312 312 313 312 309 308 308 309 310 311 312 311 317 323 321 321 322 320 320 319 322 323 320 319 318 319 319 319 317 320 327 327 329 332 331 331 331 329 329 331 333 330 330 329 329 336 344 351 354 354 355 355 354 354 356 355 352 356 357 353 351 351 350 350 350 349 349 349 349 349 350 349
311 312 313 313 313 314 314 314 314 315 315 314 314 313 313 313 313 313 313 311 309 308 310 312 313 314 315 314 316 321 321 320 320 319 320 319 321 323 321 319 318 318 318 320 318 318 327 330 329 330 329 329 328 329 329 328 329 328 329 329 333 348 352 351 354 354 355 355 354 353 354 355 354 355 355 352 352 351 350 350 350 349 349 350 349 350 350 350
311 313 314 314 314 315 315 315 315 315 315 314 313 314 313 313 313 313 312 310 310 310 312 316 317 318 320 318 316 321 322 320 318 318 319 319 319 322 323 320 317 318 316 318 319 318 325 330 329 327 327 327 326 327 329 329 329 328 330 327 334 354 356 352 354 354 353 354 353 352 354 359 356 352 353 352 352 351 350 350 350 350 349 349 350 350 350 350
312 313 314 314 315 315 315 315 315 315 314 314 315 315 314 313 314 312 311 310 311 311 313 317 318 319 322 320 318 322 322 319 318 318 318 318 319 320 323 323 320 319 317 317 319 318 322 329 329 326 327 328 326 326 328 328 328 329 329 326 334 349 354 351 352 355 355 354 353 350 352 360 357 351 352 352 352 351 349 350 350 350 349 349 349 350 350 350
314 314 314 315 315 315 315 315 315 315 315 315 315 315 315 315 314 312 311 312 312 311 312 315 318 320 322 321 319 322 321 319 318 317 318 318 319 320 322 325 324 322 319 318 318 317 319 324 325 325 328 329 326 327 331 332 333 332 327 330 334 333 341 350 351 354 355 353 353 349 353 362 357 350 352 352 352 350 349 349 350 349 350 349 349 349 350 350
314 314 315 315 314 314 314 315 315 315 315 316 316 315 315 315 315 314 314 314 314 313 312 314 317 321 324 323 321 322 321 320 319 317 318 318 319 320 321 324 326 325 322 319 320 319 317 319 321 324 326 328 329 331 335 336 339 339 329 330 329 325 341 354 351 352 354 353 353 352 357 364 355 350 352 352 352 351 349 349 349 349 349 349 349 349 349 349
314 314 314 314 314 314 314 315 315 315 315 316 315 315 315 315 316 317 316 316 316 315 314 316 318 320 324 323 321 322 322 320 320 318 317 318 318 318 319 323 327 326 322 320 320 320 318 317 321 327 326 327 331 334 335 334 336 339 333 329 324 326 345 353 351 353 352 353 355 353 356 360 353 350 352 352 352 350 349 348 349 349 348 349 348 348 349 349
313 313 314 314 313 313 314 314 314 315 316 316 315 315 315 317 318 317 316 316 316 318 320 320 322 322 322 321 320 320 318 318 320 318 317 318 318 317 317 321 326 325 322 320 320 320 321 321 325 332 331 327 329 333 336 336 334 332 330 328 324 325 336 346 351 355 354 355 358 356 356 356 352 351 351 351 352 350 349 348 348 349 348 348 347 347 348 348
313 313 313 313 314 313 314 314 314 315 316 316 315 314 314 315 316 316 314 314 315 320 324 322 322 323 320 320 319 316 316 316 317 317 317 318 317 318 318 319 324 324 322 323 323 321 323 326 329 333 334 332 330 333 337 337 333 329 327 326 324 324 325 330 337 344 353 357 357 357 357 356 353 352 351 351 352 350 348 349 348 348 348 348 347 347 347 347
313 312 313 314 314 313 313 314 314 315 316 316 314 314 314 314 315 316 314 314 314 317 320 318 318 320 318 318 317 315 315 315 316 316 316 318 316 317 318 320 324 324 324 328 326 324 326 331 334 334 336 337 334 333 334 333 329 327 327 327 325 325 326 327 325 331 350 357 357 357 356 356 355 352 351 351 351 350 348 348 348 348 347 348 346 346 346 347
313 312 313 314 314 313 314 314 314 315 316 315 314 315 314 313 315 315 313 314 315 314 315 315 315 316 317 318 316 315 315 314 314 316 316 316 316 316 317 321 326 328 325 325 326 326 329 332 334 335 336 337 334 332 330 328 327 327 327 327 325 325 327 329 326 326 344 356 356 356 355 355 354 352 350 350 350 349 349 348 348 348 347 348 348 346 346 346
312 312 312 313 313 313 314 314 314 315 315 314 315 314 314 314 314 314 313 314 315 314 314 314 315 316 318 317 315 315 315 315 314 315 316 316 317 316 317 322 328 329 325 324 328 330 331 333 333 333 331 330 330 328 327 326 327 327 327 326 326 328 328 328 326 325 339 355 357 356 355 355 353 351 350 350 350 349 349 349 348 348 347 347 347 347 347 345
312 312 312 312 313 313 313 314 314 315 315 314 315 314 314 314 313 313 313 313 313 313 313 314 314 316 317 316 315 315 314 315 315 315 317 316 316 317 318 323 326 328 325 327 333 332 332 333 332 328 326 328 329 327 327 327 327 328 327 326 327 328 326 327 326 325 338 353 357 355 353 355 353 352 350 349 350 350 349 350 348 348 348 347 347 347 347 346
312 313 312 312 312 313 314 314 314 316 315 315 315 314 314 315 314 314 314 313 313 315 314 314 315 316 316 315 314 314 314 314 314 317 317 316 317 317 319 321 324 326 326 328 332 332 333 332 327 326 327 329 330 329 327 327 329 330 328 326 328 327 325 327 327 323 329 338 346 350 353 360 358 351 353 351 350 351 349 350 349 349 348 348 347 347 347 347
313 313 313 312 312 313 314 314 315 316 316 315 315 315 315 315 315 315 315 315 315 316 316 314 315 316 315 314 314 313 314 314 315 317 318 317 317 317 318 319 322 326 326 327 328 329 331 326 324 327 329 328 328 331 329 327 329 330 329 328 328 329 328 328 325 321 323 323 331 343 344 353 359 352 352 353 350 351 349 349 349 349 349 348 347 347 347 348
315 313 313 312 313 313 314 315 316 316 316 316 316 316 316 315 316 315 317 320 317 315 317 315 315 315 314 314 314 313 314 314 315 317 318 318 317 318 317 317 319 323 325 325 326 328 328 323 323 328 328 327 328 328 328 328 327 327 331 330 327 328 328 327 324 322 324 322 328 341 335 339 354 354 352 354 352 352 350 349 349 348 349 349 348 348 347 347
315 314 313 313 313 314 315 316 316 316 317 317 316 317 315 314 315 313 319 326 320 314 315 314 313 314 314 314 313 314 315 315 315 317 317 317 317 317 317 316 317 318 319 322 325 326 324 321 324 326 325 326 326 326 327 327 327 327 330 329 328 329 327 328 324 321 325 322 329 347 341 336 348 354 353 355 354 354 352 350 349 349 349 348 348 348 347 347
314 314 314 314 314 314 315 316 316 317 317 317 317 316 315 315 315 315 322 326 319 314 314 313 313 313 313 314 313 314 314 314 316 315 316 317 316 316 317 317 319 318 316 321 328 324 318 320 324 325 324 325 327 329 328 326 327 330 328 327 328 328 326 326 321 322 325 319 327 348 346 337 348 356 354 355 355 355 354 350 349 348 348 349 348 348 348 348
314 314 314 314 314 314 315 316 317 316 316 316 316 315 315 314 314 318 324 321 315 312 313 312 313 313 313 313 313 313 314 314 315 315 315 316 315 315 316 315 316 317 314 317 325 322 315 317 321 322 322 323 327 326 325 326 327 327 325 326 325 324 326 326 322 322 322 318 322 338 342 339 349 355 351 353 355 353 354 352 349 348 347 349 349 349 349 348
316 316 315 315 314 314 315 316 316 316 315 315 315 315 315 315 321 327 324 317 313 313 313 313 313 312 313 314 314 313 313 313 314 315 314 314 314 314 315 314 313 317 318 317 319 318 314 315 316 318 317 318 321 320 320 324 324 322 323 324 323 325 327 331 335 327 320 322 323 328 339 340 345 352 351 352 355 353 354 353 350 349 348 348 349 349 349 348
317 317 317 317 316 315 315 315 315 315 315 314 315 316 315 317 328 331 321 314 314 313 312 314 314 313 313 314 314 313 313 312 312 314 314 313 313 312 313 315 315 319 323 320 317 317 316 316 316 315 314 313 316 317 316 318 318 320 326 324 322 329 329 328 334 323 315 325 328 326 337 338 340 349 345 341 344 344 350 353 351 350 348 348 349 348 349 348
317 317 317 317 316 315 315 315 315 315 315 316 316 316 319 321 323 322 318 315 314 313 313 314 314 314 313 313 313 312 313 313 311 312 313 312 311 311 312 312 313 317 320 317 317 318 316 315 315 314 314 313 315 319 318 316 317 319 327 326 323 326 326 322 326 322 319 327 326 323 334 340 341 341 333 331 333 333 340 346 347 349 349 349 349 348 349 349
316 316 316 316 316 315 316 316 316 316 316 317 316 317 322 324 319 317 317 314 312 312 313 312 313 312 313 314 312 312 312 312 311 311 312 311 311 311 311 310 310 315 318 316 317 318 315 316 315 314 315 313 314 318 318 317 318 318 323 326 323 324 323 322 325 324 321 324 321 320 330 336 335 331 328 331 332 332 337 341 342 345 347 349 349 349 348 349
316 316 315 316 316 316 316 316 316 316 315 315 316 318 319 319 318 319 317 314 313 314 312 311 312 313 313 313 312 313 313 313 311 311 311 312 312 312 312 311 310 312 316 317 316 316 317 317 315 313 314 314 315 315 314 314 316 316 321 324 326 328 326 324 326 324 321 322 320 317 324 329 326 326 328 327 331 339 341 341 342 342 343 347 349 349 349 348
316 315 315 315 315 315 315 316 315 315 314 313 314 316 316 315 315 317 315 313 314 313 312 311 313 315 314 312 311 311 313 314 311 311 311 311 312 312 311 311 310 311 314 317 315 316 318 315 312 313 312 312 314 314 312 314 316 316 319 320 321 325 326 325 328 329 325 322 320 318 322 326 323 324 326 323 331 342 341 340 341 340 341 344 347 350 349 349
316 316 316 315 316 315 315 316 315 315 314 312 313 314 313 312 312 312 313 313 312 311 314 314 312 314 314 313 312 311 312 313 312 313 313 310 311 311 310 311 310 310 313 315 314 315 318 315 312 313 314 313 313 313 312 314 317 320 320 320 319 318 321 323 324 329 327 320 320 322 323 325 325 324 322 323 335 342 340 340 339 339 340 342 345 349 349 350
316 316 316 316 316 315 315 315 314 314 313 313 315 315 313 311 310 311 312 313 310 310 315 316 312 312 313 312 312 312 313 313 312 314 312 311 312 310 310 311 311 310 311 313 313 312 315 317 314 313 315 314 312 312 313 312 314 320 320 318 317 316 320 323 323 327 327 320 320 324 325 324 326 327 322 325 338 343 340 340 339 339 339 340 342 346 348 350
316 316 316 316 316 315 315 314 314 315 313 315 320 318 314 312 310 309 310 310 310 311 314 314 311 310 312 313 311 311 314 314 313 314 313 312 312 311 310 311 311 310 309 311 314 313 313 315 315 313 314 314 312 312 316 314 313 317 316 315 318 320 323 326 323 322 323 323 321 322 327 326 323 323 321 324 338 342 339 339 339 338 339 338 339 342 345 348
316 316 315 315 316 315 314 314 314 314 314 317 322 319 314 312 310 310 310 309 310 312 312 312 312 311 311 312 311 310 313 312 312 314 314 312 312 311 310 310 312 311 309 311 313 314 315 314 315 316 312 311 313 314 315 315 313 313 312 312 315 320 322 322 323 322 323 327 325 323 328 327 322 321 320 324 337 342 339 338 338 338 338 337 337 340 344 346
316 316 315 315 316 315 314 314 314 315 315 315 317 316 312 312 310 310 311 311 310 312 312 311 312 313 311 311 311 311 312 312 311 312 312 312 311 312 311 310 311 311 310 311 311 314 317 315 314 316 314 312 313 313 312 313 312 311 311 311 311 315 319 320 321 320 323 330 332 332 331 325 322 320 319 328 337 339 338 336 335 337 337 337 337 338 342 345
315 316 316 314 314 314 313 315 314 314 316 314 312 313 314 312 310 310 312 312 312 311 311 311 312 312 311 312 312 312 312 312 312 312 312 311 312 313 312 310 310 311 312 314 313 313 317 317 317 316 312 311 312 311 311 311 310 309 310 311 310 312 319 327 323 318 322 328 330 334 332 324 322 319 319 332 337 336 338 335 333 335 335 336 337 337 340 344
314 316 315 313 314 314 313 315 314 313 313 312 310 311 314 312 310 310 311 312 311 311 311 312 312 312 312 312 312 313 315 314 312 313 312 312 312 312 312 311 311 311 314 315 313 313 315 318 319 317 312 311 310 309 309 310 310 310 310 309 310 311 315 324 323 317 322 324 324 331 332 326 325 317 318 334 336 334 339 337 333 334 332 333 335 336 338 341
315 315 314 313 314 314 313 314 315 314 312 311 310 310 311 311 310 310 311 312 312 312 312 312 312 313 312 312 314 314 314 314 313 312 313 313 312 311 312 313 313 313 314 314 313 313 314 314 317 319 319 319 315 311 311 311 310 311 311 309 310 309 309 315 318 320 323 321 321 329 329 326 326 317 317 332 335 333 337 336 334 334 332 331 332 334 336 338
315 315 314 314 313 313 315 315 315 317 315 312 311 311 311 310 310 311 310 311 311 312 313 312 312 313 311 311 314 313 313 315 314 312 314 315 313 312 312 313 314 314 314 315 314 312 311 313 317 321 320 319 317 315 315 314 311 311 311 309 309 309 309 312 316 323 326 319 319 327 328 328 326 317 320 331 333 333 335 335 334 333 332 332 329 331 333 335
315 315 313 313 313 313 314 313 313 315 316 314 313 313 313 312 311 311 310 310 310 310 312 312 311 312 312 312 313 312 313 316 315 313 315 315 313 312 312 312 313 313 314 315 314 312 313 315 317 321 321 318 318 317 317 316 312 311 311 310 310 309 310 312 316 324 327 319 317 323 324 324 319 314 323 331 331 332 333 333 333 332 331 332 330 329 330 332
317 319 317 315 314 312 312 312 312 314 317 319 317 313 313 314 312 310 310 311 310 310 311 311 311 312 313 314 314 314 314 314 315 317 316 315 314 312 311 312 312 312 314 313 311 314 318 316 316 321 321 319 318 317 316 315 313 311 311 310 311 311 310 314 318 321 320 316 318 326 326 319 313 315 326 331 330 331 331 331 331 331 331 332 331 330 329 329
318 320 319 319 315 314 314 312 311 313 315 317 317 312 312 314 312 311 311 311 311 310 310 311 312 313 313 315 315 315 316 316 317 317 315 314 315 312 310 311 311 311 313 311 309 318 323 316 314 318 315 313 317 316 313 314 311 310 311 310 311 312 312 313 315 315 315 316 322 330 327 317 312 320 329 330 329 330 329 329 329 330 331 330 330 330 329 328
318 319 316 317 316 315 317 314 312 314 314 316 317 314 313 314 313 313 312 311 310 311 311 312 313 314 315 316 317 316 316 317 316 315 314 314 315 314 312 311 310 310 311 310 309 317 322 315 312 314 312 311 314 313 311 313 312 310 311 311 311 312 312 311 312 313 313 314 318 323 322 315 315 324 330 328 328 328 328 328 327 328 329 329 328 329 329 329
317 317 315 315 314 313 314 313 311 313 316 320 321 316 314 315 314 312 312 312 312 312 312 314 314 315 317 321 322 318 316 317 315 313 315 314 313 314 313 312 311 309 310 312 310 311 317 317 313 313 313 312 312 312 311 312 312 311 312 312 311 312 312 311 312 313 313 314 315 316 317 316 319 325 328 327 327 327 326 326 326 327 328 328 328 328 327 328
316 316 314 314 314 313 312 312 312 314 317 318 318 315 314 316 314 313 311 312 313 312 312 314 315 314 316 321 323 318 315 318 317 313 314 314 313 314 313 312 312 311 312 315 313 311 314 316 316 318 316 312 312 313 312 311 311 311 312 312 311 310 312 312 313 314 315 317 320 320 321 323 322 323 326 326 327 326 325 325 325 325 327 327 327 328 327 327
316 316 314 315 317 315 313 311 312 317 319 318 316 315 316 316 313 312 312 311 312 313 313 314 315 314 315 318 318 314 312 315 315 312 312 314 314 313 312 311 310 312 315 314 312 315 317 314 316 321 319 313 313 314 313 312 311 310 311 312 311 310 312 313 313 314 315 320 325 328 328 328 324 322 324 325 326 325 324 325 324 324 325 326 327 327 327 327
316 316 315 316 317 314 312 312 313 316 316 315 315 315 314 313 311 311 313 312 311 312 312 311 312 315 317 317 315 314 312 312 313 311 311 312 311 310 310 310 309 311 316 315 312 316 320 317 316 318 318 316 315 315 314 312 311 313 313 310 310 312 312 312 313 318 322 325 328 329 327 325 323 321 321 323 324 325 324 323 323 322 322 323 325 326 326 327
Wind_Speed
13 13 13 13 14 13 13 13 13 13 13 12 12 12 13 13 13 14 14 14 14 13 11 10 9 10 10 9 10 10 10 11 11 11 12 10 13 14 14 16 17 19 22 24 23 21 20 17 15 16 18 16 13 12 11 9 6 3 1 1 1 1 2 2 4 3 2 4 6 10 10 8 6 7 10 11 11 16 13 8 13 5 7 17 15 27 35 31
14 13 12 13 13 14 13 13 13 13 13 13 12 12 12 13 13 13 14 14 14 13 11 11 10 10 9 9 9 10 10 10 8 6 6 7 12 15 16 17 18 20 24 25 24 23 21 19 17 17 18 14 10 9 8 6 6 4 0 0 2 3 3 3 4 7 4 6 8 10 10 9 8 11 13 8 8 13 9 9 14 13 16 19 22 32 33 32
14 13 12 12 13 14 13 13 13 13 13 13 13 12 12 12 13 13 13 14 14 13 12 11 10 9 9 9 9 9 9 6 3 1 1 6 11 14 17 18 18 20 23 23 23 20 18 19 19 18 19 11 8 9 6 5 4 5 2 0 4 4 3 5 5 10 8 12 13 9 10 9 10 14 13 8 8 10 8 11 15 20 24 26 31 35 32 32
15 14 13 12 12 13 13 13 13 13 13 13 14 13 13 12 13 13 13 13 13 13 12 11 9 8 8 8 8 8 5 2 1 3 4 4 10 13 16 18 18 19 21 20 19 17 13 16 18 19 17 7 7 8 4 6 4 4 4 2 4 2 3 4 4 7 9 17 16 12 11 9 11 14 13 12 9 4 9 16 18 24 30 33 37 35 33 32
14 13 13 12 12 13 13 14 14 14 14 14 14 14 14 13 13 13 13 12 12 13 12 10 8 7 8 7 8 6 1 2 3 6 7 4 8 11 15 18 18 17 21 20 18 17 13 16 17 17 13 5 6 6 4 10 7 2 4 7 8 7 4 3 4 7 12 16 14 13 11 11 14 13 14 17 9 4 11 18 21 27 31 35 39 37 34 32
14 14 13 13 13 13 13 14 14 15 14 14 14 14 14 14 14 14 13 12 11 11 12 10 7 6 7 7 7 3 2 2 5 7 7 7 7 10 14 18 18 17 19 19 19 18 16 19 19 15 9 4 5 5 5 10 9 3 5 8 14 14 8 6 7 12 16 17 12 11 12 15 15 9 15 19 7 5 13 17 22 25 28 36 40 38 36 34
14 14 14 14 14 14 14 15 15 15 15 15 15 15 15 14 14 14 14 12 11 10 10 9 7 6 6 6 5 3 5 2 7 7 6 7 7 10 14 17 18 18 19 20 21 20 19 22 21 15 8 3 4 6 5 7 10 6 5 7 13 16 13 11 11 15 19 19 14 13 14 15 14 8 14 16 7 8 13 15 21 24 29 36 38 37 36 35
15 15 15 14 14 15 15 16 16 16 16 16 16 16 15 14 14 14 13 13 11 9 8 8 6 5 5 6 4 3 5 4 8 7 6 6 6 9 12 16 19 19 19 20 22 21 21 22 21 15 7 3 4 4 5 4 7 7 8 9 9 12 14 13 14 18 19 16 13 14 13 12 13 10 13 15 11 12 14 15 22 27 31 36 36 35 34 34
17 16 16 16 16 16 16 17 17 17 17 17 17 16 15 14 14 14 13 12 10 8 7 7 6 5 5 5 4 1 4 7 8 6 6 5 4 6 10 15 19 20 19 19 20 21 21 21 21 15 6 6 4 2 4 2 3 7 11 12 9 12 13 13 16 18 17 14 15 13 8 8 11 8 9 15 14 15 16 18 25 30 33 34 34 34 35 35
18 18 17 17 17 17 17 18 18 18 18 18 17 17 16 15 14 14 13 11 9 8 6 6 4 4 5 4 1 2 6 8 7 5 5 4 2 3 9 14 17 20 20 20 21 22 21 20 21 15 5 6 4 2 3 2 3 6 10 12 12 15 11 17 19 17 16 14 17 12 4 6 10 6 5 14 18 19 20 22 28 32 35 34 33 33 34 35
19 19 19 18 18 17 18 18 18 19 18 18 18 17 16 15 14 13 12 10 8 7 4 3 3 4 4 4 5 4 6 8 6 4 3 3 3 1 4 12 16 20 21 21 21 22 21 17 18 13 3 2 1 5 6 4 7 13 12 10 10 11 3 16 16 17 14 9 15 12 6 3 6 3 5 17 22 21 24 27 31 34 34 34 32 33 32 33
20 20 19 18 18 17 17 18 19 19 19 19 18 17 16 15 14 12 10 7 5 4 2 1 2 2 2 6 9 5 6 6 5 5 4 3 3 4 2 7 12 15 18 21 21 21 20 15 14 10 3 0 2 3 7 10 12 14 8 4 6 7 3 9 10 15 11 6 15 14 6 2 6 4 5 20 24 22 26 28 32 33 33 33 32 32 32 33
21 20 20 19 18 18 17 18 18 19 19 17 15 14 14 14 12 10 7 4 3 2 1 1 1 1 2 5 7 6 5 6 6 6 7 6 4 3 4 5 7 9 13 16 19 21 20 16 15 9 1 1 2 3 9 14 12 9 3 0 1 6 2 6 7 12 7 7 19 14 2 5 8 6 6 21 26 23 26 28 30 32 31 32 32 31 31 32
22 21 20 19 19 18 18 17 17 18 17 14 12 13 12 11 9 6 3 2 3 2 2 2 2 2 3 3 7 5 4 6 6 6 8 8 6 3 4 6 7 8 10 12 15 19 20 17 13 8 4 5 6 7 9 9 5 3 1 2 1 2 2 4 7 10 5 7 19 9 2 4 5 9 11 20 27 25 26 27 29 31 30 31 32 32 32 33
22 21 21 20 19 18 18 17 17 17 13 11 12 12 10 8 6 2 1 2 3 2 3 3 2 3 5 3 7 6 5 5 4 6 8 8 7 5 4 6 6 7 10 11 10 12 18 18 12 7 6 6 7 6 5 3 3 2 0 2 2 1 2 1 5 10 3 6 17 7 2 5 2 9 15 20 27 27 25 26 28 30 30 30 31 32 32 33
22 21 21 20 19 19 18 17 16 14 10 11 12 10 7 6 4 0 1 2 2 3 3 3 3 3 4 2 6 6 6 5 3 5 7 7 7 5 4 5 6 7 9 11 10 8 13 17 13 8 6 5 2 0 2 4 3 3 2 1 2 2 1 0 3 8 5 6 11 6 2 3 2 8 18 20 26 28 24 25 28 29 30 30 30 32 32 32
23 22 21 20 19 19 18 17 15 11 8 11 11 8 6 5 3 2 2 0 2 3 3 4 4 3 2 3 6 6 4 5 6 6 6 7 6 4 3 5 6 8 9 12 13 10 12 13 9 6 5 2 1 3 2 2 2 4 2 1 1 1 1 1 2 6 7 7 7 7 4 4 3 6 17 21 25 26 24 25 28 29 29 30 30 31 33 33
24 22 21 20 19 18 17 16 14 8 7 11 9 6 5 4 4 5 3 3 3 2 1 3 1 0 3 4 5 4 1 3 7 7 7 7 7 4 3 4 5 10 11 11 11 11 12 10 6 2 1 1 2 3 3 3 2 1 2 3 2 3 1 2 2 5 8 5 6 7 7 9 4 5 14 20 24 25 24 26 28 29 29 29 30 31 33 34
26 23 21 20 18 18 16 15 11 6 6 9 6 3 3 3 2 4 3 7 4 2 0 1 3 1 2 3 2 1 1 4 6 7 9 9 8 7 4 3 7 12 10 6 6 9 11 6 3 3 2 2 3 4 5 5 5 5 3 4 2 2 3 2 3 5 9 6 5 7 8 11 7 5 10 18 23 24 23 24 26 28 29 29 29 31 33 35
27 23 21 19 18 16 15 14 9 5 5 6 4 2 3 5 1 1 8 10 5 4 4 5 6 7 5 2 1 3 1 6 6 7 10 9 10 10 7 7 9 9 6 5 5 7 9 5 2 4 4 5 5 6 6 4 4 4 3 3 2 1 4 4 4 5 8 6 5 9 9 10 8 4 9 17 20 19 20 21 23 26 29 30 29 30 33 36
27 23 20 18 17 15 13 11 7 3 4 4 3 5 7 8 3 3 10 8 3 4 8 8 8 11 8 3 2 5 2 3 4 8 11 9 12 11 7 6 6 3 1 5 6 4 6 5 4 5 6 6 5 5 4 2 3 2 2 2 1 2 4 5 4 4 5 6 6 8 8 9 8 5 9 16 16 16 21 23 25 28 29 30 31 30 32 33
27 23 20 18 16 13 11 9 5 1 4 4 5 8 10 8 4 4 6 6 7 6 6 7 8 11 8 4 4 5 2 0 2 9 11 10 12 10 5 5 5 2 1 3 6 3 3 3 4 6 6 4 3 4 4 2 2 2 2 2 0 2 4 5 4 4 2 5 4 4 6 9 9 7 9 15 16 19 27 28 28 30 29 30 32 32 31 30
26 24 21 18 15 11 9 8 3 2 5 6 6 8 8 6 3 3 4 5 8 6 4 6 8 9 7 4 4 3 3 2 2 9 10 10 13 9 6 5 4 3 1 3 5 5 3 4 6 7 6 5 1 3 6 3 1 2 3 2 2 2 1 2 4 5 2 5 3 4 5 7 6 5 7 15 21 22 26 27 25 27 29 32 34 34 33 31
26 25 22 18 14 9 8 6 2 6 6 5 5 6 4 2 2 4 5 3 4 4 1 5 5 5 6 4 2 1 2 2 2 8 9 10 12 8 6 5 4 3 1 3 6 5 4 6 4 5 6 5 2 1 5 3 2 2 3 4 3 2 3 4 4 4 2 3 3 3 1 5 4 6 5 11 18 18 20 21 21 25 29 30 31 31 33 34
26 24 21 18 11 7 7 4 4 8 7 5 4 3 1 3 6 7 6 2 2 4 2 3 3 3 3 1 3 2 1 1 2 7 8 10 11 7 4 5 4 2 2 4 6 3 4 6 2 5 4 5 4 2 3 5 1 3 4 7 7 5 5 5 3 5 5 4 4 2 2 5 4 6 6 6 11 12 16 19 21 26 28 28 28 30 33 34
25 23 19 15 10 6 4 1 5 7 7 5 2 0 3 6 9 8 4 4 1 3 1 2 2 2 3 3 5 3 1 1 3 6 7 8 8 6 5 3 2 3 4 5 3 2 2 3 4 5 4 5 4 3 4 6 4 2 5 7 9 8 6 6 1 2 1 2 4 1 3 4 4 3 6 6 8 11 13 16 21 27 28 29 31 32 33 34
24 20 16 13 9 5 1 2 3 6 7 4 3 2 6 8 8 7 2 5 2 2 1 1 1 2 2 3 5 3 2 3 5 6 6 7 6 5 5 2 0 2 3 4 2 2 2 1 1 4 4 5 3 3 5 7 6 2 5 6 8 8 6 5 4 3 3 1 4 2 4 2 4 4 4 6 8 10 12 14 18 25 29 31 34 35 35 36
20 17 15 13 9 5 1 2 2 5 5 3 3 4 6 6 6 4 2 5 2 2 1 1 1 2 2 2 4 2 2 4 4 4 5 5 3 3 3 3 5 3 2 6 3 4 2 2 2 4 4 3 4 5 6 8 5 5 6 7 7 8 7 4 5 4 2 2 4 4 3 1 5 5 2 6 9 10 15 15 15 21 28 32 34 36 37 38
16 15 15 13 11 7 3 3 3 2 2 2 3 4 4 4 4 2 4 3 2 2 0 1 0 2 0 2 1 1 3 5 3 2 5 6 3 4 4 1 3 4 4 5 5 4 1 2 4 5 3 3 5 5 7 10 6 4 5 5 3 4 4 4 5 3 1 2 4 5 3 2 4 5 2 5 7 11 14 11 11 19 27 32 34 37 37 38
15 14 15 14 13 9 5 2 1 0 2 2 2 2 2 3 1 4 4 2 1 2 2 2 2 2 2 3 3 5 6 7 7 7 10 12 12 13 9 5 6 4 2 5 3 3 4 2 4 5 2 4 5 3 5 10 7 2 4 4 4 3 3 4 2 3 3 2 6 7 6 4 2 5 3 3 4 8 9 8 9 15 24 32 36 38 39 39
14 14 14 13 12 10 7 4 3 2 2 2 2 2 1 1 2 5 3 1 1 3 3 2 2 2 4 5 3 6 6 7 9 9 8 11 15 18 12 6 7 5 3 5 2 3 7 5 1 2 4 5 2 1 1 1 1 2 3 4 4 2 3 4 4 2 3 4 6 4 5 5 1 4 3 5 8 7 6 9 11 15 23 32 37 39 41 41
15 14 13 11 10 10 8 7 6 6 6 6 5 2 1 2 4 3 1 3 2 2 2 2 2 2 4 6 5 6 5 5 8 8 5 5 8 10 8 3 2 2 2 2 1 4 4 2 5 5 6 12 6 2 3 5 5 4 4 5 4 1 1 1 1 1 3 5 4 1 4 3 3 2 4 8 10 11 9 7 9 16 25 31 35 39 41 41
14 12 11 10 10 9 9 10 10 11 10 7 3 1 4 5 3 2 3 2 1 1 2 2 3 4 5 6 5 5 6 5 5 6 4 4 5 4 4 5 5 2 3 1 1 4 2 2 8 7 6 12 7 3 2 2 4 3 3 5 4 3 3 3 3 0 2 4 4 2 2 2 2 1 6 9 9 13 16 17 16 13 17 27 32 35 39 40
13 12 12 12 12 12 11 13 14 14 11 4 4 4 7 5 1 3 3 2 2 3 3 2 3 6 7 5 2 2 6 5 5 6 4 4 5 4 5 9 10 4 2 3 2 2 3 0 7 5 4 10 6 2 1 3 1 2 3 5 4 4 4 3 3 3 3 3 3 3 2 3 3 3 4 8 10 18 23 24 25 25 19 17 29 30 32 37
12 12 14 15 15 16 16 18 17 14 9 10 9 6 6 3 2 2 2 3 2 3 4 4 5 6 6 5 4 3 5 3 3 7 7 5 4 4 4 6 9 6 3 3 2 1 4 1 5 5 4 5 5 4 2 2 2 2 1 4 3 3 4 2 3 5 4 2 0 1 3 2 4 4 8 13 13 20 27 29 28 29 30 16 20 30 31 35
10 13 17 17 18 19 20 21 17 11 11 14 10 5 3 1 2 1 2 3 2 2 3 5 7 6 4 4 5 7 7 4 3 4 5 4 4 5 4 3 6 6 3 3 1 1 3 0 6 8 6 4 5 5 3 5 1 1 3 2 3 3 4 3 1 1 3 5 2 1 1 4 2 0 11 17 14 20 24 26 27 26 30 26 10 21 31 36
8 13 18 21 21 20 20 19 13 10 16 15 9 3 1 0 1 2 3 4 3 2 3 4 4 3 3 3 4 7 5 4 4 4 3 3 3 5 6 4 4 6 4 2 2 1 2 1 5 6 4 8 11 7 1 6 4 2 2 1 3 2 3 3 1 2 4 4 2 2 3 4 4 1 9 16 17 20 19 18 23 27 29 28 23 16 18 31
8 13 18 21 19 17 18 17 11 17 23 14 6 5 2 2 6 5 5 4 2 3 5 3 1 2 2 3 3 6 4 3 3 3 3 3 2 3 4 4 4 10 10 4 2 1 3 1 4 3 3 9 12 6 1 9 10 4 2 1 1 3 1 1 2 2 1 3 1 2 2 4 5 3 9 14 15 16 16 15 18 22 26 26 26 28 23 20
7 10 16 19 15 15 17 14 14 22 21 8 3 4 1 2 8 12 10 5 2 5 5 2 2 3 4 3 1 4 6 3 2 2 2 2 1 3 5 3 4 10 12 8 3 1 2 3 2 6 5 5 7 6 3 7 9 5 4 4 3 2 2 1 2 3 3 3 3 1 3 3 2 4 7 11 12 11 12 14 14 17 23 27 26 29 31 21
6 6 12 15 12 15 16 16 19 20 12 2 2 3 1 1 8 17 19 11 5 6 3 2 3 3 3 4 3 3 5 4 3 3 2 2 1 1 5 4 4 7 8 8 6 1 1 3 1 6 8 4 3 3 2 3 5 5 5 5 4 3 1 2 2 2 2 3 3 3 3 1 1 4 5 8 11 10 10 11 13 18 24 29 31 33 36 25
9 5 10 13 12 13 15 18 16 10 4 2 2 2 3 4 6 14 20 17 12 10 7 4 4 3 3 4 3 3 3 4 4 3 3 3 2 1 6 7 4 5 5 5 5 3 2 2 2 3 5 4 2 3 1 4 5 5 4 4 4 3 2 3 2 2 1 3 2 4 4 2 2 2 3 5 8 9 11 13 14 20 28 34 38 39 41 34
12 5 8 11 12 8 13 14 7 4 4 3 3 4 6 5 5 10 15 15 12 10 10 6 4 4 3 2 3 3 3 3 4 3 3 2 2 1 7 11 7 4 4 3 2 2 2 3 3 2 2 0 2 4 3 5 5 5 5 4 3 2 3 4 2 1 2 3 1 3 4 4 3 3 4 5 8 9 13 15 16 19 25 37 46 46 45 43
14 9 9 9 6 5 12 9 4 5 5 2 4 9 9 6 6 8 11 11 8 6 8 6 3 4 4 3 3 3 3 3 3 3 2 2 3 3 9 13 11 6 4 2 2 3 2 3 3 2 3 4 4 4 5 5 4 4 5 5 4 3 2 1 3 2 2 3 2 2 2 4 3 5 8 10 12 13 15 17 17 18 22 36 49 50 48 46
13 15 17 11 1 1 8 5 2 4 3 4 5 7 9 8 8 8 6 7 6 4 3 4 4 5 3 3 4 2 2 3 2 3 2 2 2 7 12 15 12 7 4 2 2 2 2 2 3 3 2 4 4 4 5 5 4 3 3 5 6 6 6 2 1 3 2 1 2 3 2 4 3 5 10 12 13 13 17 19 18 18 21 33 46 48 48 49
7 10 17 18 11 11 9 5 5 5 2 5 6 4 5 6 8 10 7 6 8 6 3 2 3 5 4 3 5 4 4 4 2 2 3 2 2 6 12 15 12 9 7 7 5 3 2 2 3 4 3 2 2 2 2 3 4 2 3 6 7 7 8 4 1 4 2 1 1 2 4 4 4 5 9 12 12 12 16 20 21 22 21 27 40 44 45 48
4 3 7 14 17 19 14 7 7 6 2 3 4 4 4 2 5 11 11 7 9 10 7 4 2 4 5 5 6 6 7 6 4 2 2 2 2 3 9 13 14 12 10 12 11 5 3 2 2 5 5 4 5 4 3 1 2 2 4 6 6 6 6 3 3 2 2 1 2 3 4 5 8 8 10 11 11 11 14 18 21 24 23 24 34 39 40 45
5 2 2 5 8 12 13 11 9 5 2 3 2 2 4 3 2 7 9 6 6 7 7 6 5 3 4 4 5 4 5 5 5 4 2 2 1 2 6 10 13 14 11 10 10 5 4 3 3 4 3 2 5 3 4 2 1 1 3 5 5 6 6 5 2 1 3 3 3 5 1 4 7 8 10 9 9 9 11 16 18 19 22 25 32 36 38 43
4 2 2 3 2 2 5 7 8 8 5 4 3 1 4 4 2 3 4 4 6 6 4 4 7 5 3 4 5 2 3 4 5 2 1 2 2 3 5 6 8 12 10 8 7 4 5 2 0 2 2 3 0 1 3 3 1 3 3 3 5 5 4 3 2 4 3 3 4 5 4 4 5 8 9 7 8 9 11 15 18 20 24 28 32 35 36 39
7 4 5 6 4 1 2 3 7 10 7 4 4 3 2 4 4 1 1 3 5 6 5 3 4 6 4 4 5 4 2 3 2 1 1 1 2 2 2 2 5 10 9 5 5 4 4 1 1 2 2 3 3 3 2 3 3 4 4 5 5 5 4 3 4 5 3 4 6 3 5 4 2 7 7 6 8 10 12 17 21 24 24 25 28 32 34 35
7 5 5 7 8 6 5 4 5 7 5 3 3 2 1 3 3 2 2 4 2 3 4 5 2 2 4 5 6 4 3 5 5 2 3 3 1 0 1 1 1 5 7 2 2 4 3 1 1 3 3 2 3 3 3 1 1 3 6 7 5 3 4 3 3 2 1 3 4 3 3 2 3 9 9 7 10 13 16 20 22 22 23 23 25 29 32 32
8 7 5 6 5 6 6 4 4 4 3 3 2 1 1 2 0 0 3 4 3 1 2 7 7 2 4 6 6 3 2 5 5 3 4 4 3 4 2 2 4 1 4 1 1 3 3 1 2 4 4 3 3 3 5 3 2 2 3 4 3 2 2 2 3 2 1 2 4 4 3 1 5 11 10 8 11 14 15 17 19 21 23 23 23 26 29 30
8 8 6 5 3 5 5 2 3 4 1 1 1 1 1 1 0 2 3 4 4 3 6 10 8 4 4 4 3 0 1 2 2 3 3 4 4 6 4 2 5 4 1 2 1 2 3 3 1 2 2 3 4 3 4 4 4 2 1 3 1 2 2 3 4 2 1 1 1 2 2 2 5 8 8 8 9 11 12 15 18 21 23 23 22 24 26 28
Wind_Direction
342 341 341 340 340 341 343 345 347 349 350 350 348 345 341 337 334 331 332 334 334 330 321 314 306 299 296 300 305 305 309 304 295 281 268 249 218 213 197 194 194 183 177 174 180 184 178 173 166 166 168 172 185 197 204 221 232 220 188 249 285 239 216 206 189 181 150 139 150 168 174 153 144 150 129 121 129 141 143 141 158 158 156 162 163 165 160 158
341 340 339 339 337 338 341 342 344 345 346 346 345 342 337 334 331 330 331 333 333 330 322 316 310 301 297 301 303 306 312 307 296 282 259 227 211 207 194 191 191 185 180 176 180 184 180 175 168 166 167 168 182 197 212 228 225 217 93 21 251 222 218 254 186 166 160 152 152 171 178 158 152 150 141 131 135 148 135 127 140 122 131 150 156 160 158 161
340 340 339 338 334 335 338 340 341 341 341 342 340 339 335 330 327 327 329 331 332 329 322 316 310 303 301 301 303 308 314 308 288 321 216 209 204 200 193 189 186 184 184 183 183 184 185 180 170 166 163 161 174 185 210 219 205 205 191 305 242 229 259 287 188 178 176 154 152 170 174 156 153 153 147 140 141 155 151 144 140 131 138 148 155 159 160 164
341 339 339 337 333 333 337 338 338 337 338 337 336 334 330 327 323 322 326 330 330 327 321 315 308 303 304 300 303 309 318 315 195 90 76 182 192 194 190 183 183 182 183 184 181 179 183 179 168 163 159 146 168 178 212 217 198 179 185 218 249 275 303 281 189 179 167 157 158 159 159 152 157 159 152 144 143 179 179 168 159 148 150 153 157 162 165 169
343 341 340 338 333 333 336 337 337 335 334 333 332 330 327 324 319 318 322 329 329 324 319 314 306 303 303 297 303 305 21 89 150 102 70 111 162 184 183 177 179 178 178 179 177 174 177 178 164 157 157 134 157 178 235 222 217 223 234 246 262 284 298 264 197 173 159 155 156 151 154 155 156 163 164 161 162 198 182 176 171 162 160 161 162 164 168 173
350 347 344 341 336 335 336 335 335 332 331 330 328 326 324 320 316 314 317 325 327 322 317 310 302 299 300 295 303 274 172 108 141 110 74 98 129 167 176 174 174 174 177 176 175 175 174 171 163 156 154 130 154 187 234 221 214 244 265 252 256 258 255 246 190 172 165 157 160 161 158 152 152 168 177 176 178 167 175 179 175 170 170 167 165 168 172 176
358 355 349 344 340 338 335 333 332 330 329 327 325 323 321 317 314 311 313 321 324 321 313 307 301 295 297 292 305 254 226 178 136 115 88 105 121 157 174 176 175 177 176 175 176 175 171 168 166 159 142 129 179 206 246 233 211 226 265 255 259 253 249 241 190 172 173 166 167 163 155 158 160 165 177 185 190 164 169 178 177 174 172 168 167 171 175 178
1 356 350 345 341 337 333 332 330 329 326 324 323 320 318 315 311 307 309 316 319 320 308 304 299 289 295 290 310 282 238 175 135 117 104 115 130 159 177 181 183 184 177 176 179 174 170 167 169 161 142 163 166 197 255 266 218 218 246 259 266 259 252 231 188 173 174 165 161 158 156 172 172 161 172 186 186 169 165 171 176 171 168 168 169 173 177 179
355 351 347 343 339 335 332 331 329 328 326 324 322 319 317 313 308 304 307 312 313 316 304 299 297 286 289 287 308 286 193 154 138 124 120 118 131 168 187 190 191 192 185 179 179 176 172 170 173 166 159 191 171 212 253 267 227 213 236 258 264 270 259 207 179 172 170 160 156 156 151 165 170 161 175 192 184 170 166 169 172 169 167 170 173 176 178 181
351 348 345 342 339 335 333 332 330 328 326 325 323 320 316 309 304 302 304 308 308 312 303 294 291 277 279 272 246 164 170 161 152 138 132 119 111 182 197 197 197 198 194 185 181 181 179 177 176 170 157 187 185 280 265 204 259 272 268 271 271 284 262 186 171 166 163 160 160 153 128 145 164 167 188 197 184 170 167 168 171 169 170 174 176 179 181 183
349 347 345 343 340 336 335 333 331 329 326 327 325 321 315 306 302 300 302 305 305 310 302 287 274 266 276 240 204 173 163 165 165 163 154 125 90 59 197 199 200 201 199 192 188 185 184 179 173 174 171 179 237 298 297 292 296 299 302 305 299 311 242 171 164 162 156 156 165 143 96 127 172 204 212 188 180 174 169 167 172 172 172 176 178 180 184 186
348 347 345 343 340 337 336 334 331 328 328 329 327 320 311 303 301 301 301 300 302 309 288 262 257 261 289 235 214 178 151 163 170 183 180 151 108 50 95 194 202 205 203 198 195 188 183 175 169 177 181 67 321 304 314 323 314 301 304 322 313 356 86 161 154 166 161 149 164 137 90 242 217 240 202 180 177 174 170 168 172 174 174 177 179 181 185 188
347 346 344 342 339 337 335 334 330 328 331 334 330 317 307 304 306 305 300 295 302 304 243 243 266 287 309 237 198 163 166 186 186 180 171 169 166 98 106 163 192 206 208 205 202 193 182 175 179 189 210 341 321 311 313 317 313 299 299 50 300 6 16 182 155 166 159 143 164 150 115 243 220 222 183 174 175 169 168 170 172 175 176 178 181 184 186 189
347 345 344 342 339 336 334 333 329 330 336 339 330 314 310 312 312 308 291 297 311 284 229 264 298 298 287 185 163 171 198 204 205 187 174 177 181 159 127 142 171 191 199 202 203 199 189 180 187 206 240 267 299 315 319 320 320 304 311 17 60 22 280 206 155 162 144 157 171 162 310 255 220 210 190 175 174 170 169 173 174 176 178 180 183 186 188 192
346 345 343 342 339 335 333 332 329 335 345 344 331 320 324 330 321 314 276 299 307 268 246 277 321 312 295 188 170 193 201 199 189 161 168 173 166 160 147 144 156 172 183 187 185 193 195 193 196 215 244 272 299 314 331 342 341 1 67 316 344 58 275 258 161 172 134 160 179 170 315 266 250 185 186 179 175 173 173 176 177 178 181 182 184 188 190 194
345 344 343 342 340 335 333 332 331 340 354 346 334 329 339 345 340 53 238 283 288 260 247 282 325 321 303 200 178 190 195 202 183 160 170 168 155 139 141 154 147 153 168 171 159 157 184 196 204 222 251 278 292 217 12 6 348 355 91 223 302 50 11 333 166 184 132 120 188 211 258 272 329 164 174 178 177 175 175 178 180 181 183 184 186 189 192 195
342 342 340 341 340 336 334 331 331 344 359 348 340 340 350 358 24 113 153 210 286 268 254 278 306 303 253 169 163 175 201 214 208 204 188 173 169 153 155 171 160 149 144 150 156 148 161 181 189 216 252 260 129 107 58 359 319 320 26 78 277 72 113 149 161 189 153 128 191 228 245 257 327 154 169 177 179 178 178 181 182 184 186 187 189 190 193 195
339 338 336 337 338 337 334 330 331 346 360 352 344 346 12 31 75 116 100 21 323 265 282 267 245 332 208 180 157 156 249 213 202 210 204 189 184 190 192 183 162 146 135 139 154 154 161 172 158 168 282 105 127 106 125 224 196 159 68 67 341 351 39 157 177 192 168 160 194 203 239 253 270 150 170 180 182 183 184 183 184 186 188 189 190 192 195 197
336 334 332 332 334 336 334 328 330 345 356 358 352 1 49 34 107 139 37 347 306 208 18 234 183 177 220 198 166 91 22 189 190 196 199 196 185 195 201 171 153 147 138 128 155 166 163 156 121 155 210 163 179 159 168 202 161 133 128 116 110 347 313 231 251 224 177 175 212 194 222 241 232 170 175 184 185 187 187 186 186 189 190 191 192 194 196 199
333 330 327 327 330 334 334 327 327 344 357 5 11 72 53 12 64 200 335 329 293 246 268 264 252 274 282 239 100 35 126 184 196 191 184 189 186 183 173 150 140 142 143 131 159 179 161 161 183 172 186 187 197 193 176 172 142 119 109 106 124 226 294 264 263 250 183 171 233 215 223 241 231 195 181 183 186 190 188 188 190 191 192 194 194 195 197 202
331 327 324 324 328 332 332 325 322 354 22 36 60 88 61 28 34 322 333 332 311 288 275 268 261 267 271 267 349 4 359 181 204 188 173 176 178 172 169 150 120 114 186 139 133 145 155 185 206 178 190 192 190 188 163 132 129 98 103 85 40 196 264 259 252 270 186 178 237 224 229 252 239 208 184 179 182 193 192 191 194 194 194 196 197 197 198 202
331 327 324 323 327 332 328 322 316 12 66 93 99 92 76 49 33 328 331 314 301 301 272 250 247 254 258 271 304 323 290 176 154 170 162 165 175 177 172 139 116 145 249 103 113 124 175 222 217 199 190 169 156 153 140 124 131 108 107 103 337 238 281 284 287 320 167 185 249 217 216 249 241 209 187 182 185 197 199 197 197 195 194 197 200 200 198 199
330 327 326 326 330 331 322 318 298 138 113 121 112 93 80 61 48 347 326 297 295 303 263 237 244 255 268 285 288 282 214 181 134 159 162 171 178 180 165 133 116 141 91 90 126 144 190 244 228 203 160 146 189 126 113 79 71 143 142 140 234 245 358 294 301 349 113 192 227 169 203 258 248 212 200 193 193 199 203 204 203 199 199 201 203 202 200 197
332 330 330 331 335 330 317 311 214 152 139 133 109 96 77 38 1 325 327 301 288 319 288 220 237 258 279 288 251 236 179 187 153 152 163 177 175 172 169 143 111 122 150 143 134 140 212 249 221 156 137 154 193 105 110 109 301 260 190 174 190 185 185 223 283 356 30 251 237 127 32 299 237 207 213 195 194 199 201 203 207 207 208 208 207 206 205 203
337 337 337 336 339 330 314 295 180 159 158 149 111 95 25 317 304 312 335 9 282 328 40 178 210 230 252 229 187 200 165 173 150 152 163 176 171 161 155 138 122 170 197 139 125 136 250 257 167 122 136 150 166 228 175 158 210 307 227 195 179 170 203 237 312 11 20 328 272 126 57 303 265 213 211 182 187 195 193 197 206 209 210 210 210 210 210 209
341 343 345 343 343 336 319 236 173 170 175 180 164 7 317 304 299 297 320 54 40 324 32 157 184 194 200 181 187 191 120 113 113 144 166 176 173 151 139 134 112 181 171 135 132 179 258 262 158 146 157 141 153 242 216 160 139 309 243 193 171 169 202 237 275 38 52 301 284 146 148 270 308 250 217 180 186 195 190 198 205 207 208 208 210 211 211 211
346 350 354 351 351 350 340 146 160 172 175 191 214 286 309 308 306 292 312 55 37 312 342 187 175 174 164 150 172 157 129 146 100 87 127 167 197 169 153 183 106 163 160 122 93 221 203 12 116 143 139 136 152 240 219 156 133 236 233 156 147 169 196 213 171 174 221 262 319 357 129 236 304 276 222 170 181 200 201 206 205 204 206 208 211 212 212 211
355 2 5 3 5 2 29 133 139 166 174 203 256 297 307 307 310 302 88 76 351 324 17 284 219 166 136 126 176 161 121 141 105 50 84 130 199 161 138 198 180 160 95 116 150 254 207 115 161 158 130 146 190 220 191 153 158 238 209 150 147 172 179 167 156 195 250 29 321 308 113 171 280 286 247 167 180 206 212 211 203 201 204 207 211 213 213 213
7 14 13 12 12 12 40 98 106 142 205 262 279 297 298 290 303 5 85 81 335 342 44 305 191 183 126 91 165 49 61 74 72 57 76 78 73 92 89 58 157 137 58 93 160 243 302 114 155 135 116 195 225 237 173 159 198 220 158 149 137 148 152 128 145 172 43 37 266 256 172 166 277 289 259 178 195 215 216 214 206 202 203 207 211 213 214 215
10 13 11 11 12 16 31 33 10 4 303 285 264 278 294 291 339 61 61 73 19 330 297 291 276 278 3 66 45 19 44 50 42 60 61 53 55 61 68 56 58 90 42 39 112 251 320 73 117 92 69 245 247 255 174 176 202 156 99 106 84 58 66 72 85 107 75 289 257 235 192 155 288 282 238 196 231 229 214 210 208 205 205 207 211 213 214 214
1 3 360 358 4 15 29 25 8 6 354 346 321 301 303 342 60 84 73 7 10 341 339 314 285 355 53 89 57 11 36 37 20 37 44 37 45 42 36 31 29 43 23 13 46 329 355 41 39 342 3 351 338 130 110 164 210 113 104 104 102 20 26 41 4 69 132 251 266 234 167 137 193 272 298 316 319 309 248 219 208 202 205 207 208 211 212 213
357 355 351 353 6 21 31 29 19 9 351 336 330 319 134 57 39 73 333 324 342 333 337 306 309 23 72 85 59 13 38 43 13 32 46 26 45 46 40 28 5 64 55 338 342 7 19 40 326 314 0 13 27 103 8 13 42 88 121 103 107 44 32 115 281 154 187 243 270 236 130 138 213 230 346 348 346 341 324 293 257 227 215 210 208 209 211 212
10 10 11 15 24 27 24 14 2 355 344 328 316 91 95 77 40 346 315 335 10 325 327 313 349 45 78 71 47 29 46 38 356 18 41 43 57 61 49 29 19 113 146 177 54 28 44 334 350 354 351 359 23 78 8 348 30 48 138 123 129 135 115 189 229 160 209 244 284 318 167 200 251 326 1 357 354 353 356 356 343 305 250 225 215 211 211 211
30 33 35 33 29 23 14 4 358 357 358 27 114 88 67 73 12 340 340 299 283 335 352 352 6 40 56 48 24 60 62 36 12 33 35 42 47 16 1 12 14 35 109 77 70 60 116 118 354 9 332 344 8 74 205 210 291 303 185 137 126 148 147 182 202 166 181 224 305 331 204 183 159 144 27 8 2 6 7 5 3 357 334 258 224 216 213 212
30 28 28 23 19 16 9 6 9 14 40 83 89 64 65 73 283 327 328 285 294 329 338 10 40 47 37 22 4 32 69 58 24 46 43 47 55 6 347 351 358 12 56 63 41 47 105 157 317 311 289 336 355 321 324 140 199 268 129 97 101 159 156 148 176 176 163 142 92 257 213 214 178 167 16 8 10 14 10 5 4 1 356 331 230 215 214 215
25 26 26 20 15 12 9 12 17 29 68 85 75 47 76 109 269 248 292 299 312 319 335 10 35 48 21 5 359 2 34 55 41 50 41 47 59 15 351 316 343 11 50 90 68 19 78 296 311 326 315 337 354 320 3 74 160 241 52 91 197 172 136 120 170 249 78 120 173 266 304 337 329 151 359 358 9 15 10 6 3 357 359 357 301 226 217 215
24 26 26 24 22 16 16 22 28 62 78 79 75 63 135 286 326 258 293 314 297 334 64 48 19 36 34 33 7 340 359 35 38 51 35 25 30 2 344 318 349 13 13 92 107 64 101 215 306 350 324 314 338 331 327 26 29 115 102 243 229 132 108 112 123 15 46 124 181 10 42 14 20 348 339 353 11 14 7 4 2 360 1 358 344 315 252 223
34 32 27 24 25 25 31 36 56 88 81 72 74 81 107 3 1 335 320 325 321 30 66 80 43 49 66 74 18 345 0 28 14 43 57 33 18 358 348 324 352 5 358 22 90 29 61 51 289 324 282 300 338 6 2 348 6 68 132 268 99 112 119 24 99 136 119 142 131 20 40 49 39 334 331 353 7 9 5 5 7 4 359 351 342 337 320 260
26 27 25 19 29 46 52 60 83 85 75 62 74 73 88 359 8 10 12 9 39 54 57 60 66 64 54 84 85 9 33 55 36 61 68 45 38 15 14 340 326 358 9 37 76 293 27 71 277 300 314 318 352 33 33 328 342 22 35 14 33 114 147 95 93 139 153 153 153 69 23 35 13 328 334 349 353 359 4 7 13 9 1 356 346 340 336 304
39 32 18 15 48 72 73 79 77 71 65 67 94 52 12 16 4 18 34 48 51 49 63 42 44 74 58 54 75 42 43 47 46 73 57 34 91 14 16 14 317 338 18 54 63 25 18 63 3 306 328 8 28 12 13 339 345 11 33 24 0 347 27 76 54 49 113 136 157 123 76 40 305 331 336 347 347 352 4 6 10 12 9 5 357 352 352 336
56 51 9 27 81 93 77 72 61 53 61 52 53 16 15 36 4 11 33 52 60 55 71 81 59 83 83 51 46 33 51 44 27 64 77 29 69 79 4 4 333 323 9 45 37 26 40 74 80 337 352 47 62 308 349 72 52 47 60 33 347 341 44 86 63 346 45 102 140 135 125 190 250 343 336 358 354 347 359 4 4 12 16 15 9 4 5 5
62 50 3 54 100 85 62 64 34 28 75 50 43 41 32 34 14 6 20 39 54 52 54 62 58 56 58 64 58 39 70 62 12 44 89 30 70 132 341 355 9 22 48 53 341 344 91 98 76 32 345 149 242 294 356 62 71 65 57 31 354 17 63 102 134 289 6 34 33 106 113 199 224 7 2 360 356 351 0 3 359 2 13 20 19 15 13 16
59 47 30 76 108 43 62 72 6 29 57 48 69 53 46 45 21 18 23 26 33 41 42 40 39 53 48 48 64 60 70 63 24 50 102 45 32 1 354 17 36 40 51 61 319 341 57 74 56 8 318 305 287 306 351 22 50 48 25 17 15 356 348 167 167 151 70 20 11 82 105 214 236 2 4 358 1 8 8 4 2 358 7 22 24 22 18 18
60 49 44 54 111 39 83 99 57 63 37 32 62 44 46 53 30 28 32 20 22 45 56 27 25 53 54 45 67 78 81 81 49 35 70 100 22 8 22 41 46 37 39 43 320 341 20 64 79 70 12 349 336 331 340 353 25 46 352 356 8 359 359 16 80 64 74 28 57 113 179 230 254 353 2 0 4 17 13 6 7 4 7 23 27 24 22 22
61 51 45 50 74 95 93 105 109 102 64 49 56 22 32 46 32 37 47 39 39 54 81 49 41 63 52 49 67 44 44 86 102 23 44 51 338 5 26 40 47 45 38 28 24 43 75 86 101 113 134 164 193 239 271 312 348 12 354 355 2 6 11 22 62 50 81 203 43 134 211 267 315 4 12 4 2 13 10 5 9 8 3 19 28 26 23 25
46 49 36 44 65 76 76 82 91 90 103 86 59 21 31 32 17 33 44 48 39 45 62 53 56 77 43 48 71 36 25 52 69 84 75 27 314 341 19 36 41 38 33 29 29 48 94 64 80 120 136 165 179 213 252 295 359 350 359 357 354 357 5 39 85 67 139 140 318 224 220 309 337 5 16 6 2 6 6 4 6 5 360 10 27 28 24 24
50 35 347 21 47 57 55 53 56 66 107 111 89 6 19 12 349 25 38 48 37 44 55 32 23 61 54 66 91 50 16 33 43 58 64 9 293 321 16 40 39 28 29 30 23 43 98 47 36 99 104 181 179 223 305 17 71 322 351 350 338 341 359 38 66 224 158 89 302 249 246 344 337 3 16 7 359 1 5 4 2 2 3 12 25 29 26 24
70 57 41 55 43 16 42 49 59 71 76 75 87 48 19 32 43 33 31 32 31 38 55 29 12 21 57 97 113 98 38 36 27 26 47 19 351 353 16 29 27 23 27 28 23 63 108 74 332 105 34 332 337 320 349 37 12 314 334 322 311 321 343 9 280 251 173 140 248 264 318 328 333 2 9 11 6 3 5 5 7 13 14 17 24 27 26 24
83 84 54 65 79 60 81 88 78 75 64 49 62 51 38 55 48 8 342 27 20 17 51 80 355 353 27 76 99 110 113 108 61 309 199 65 16 30 42 4 9 25 32 31 18 46 99 113 239 123 71 356 352 343 16 48 359 325 308 285 276 277 278 270 263 260 220 218 240 282 312 294 11 4 356 23 21 14 17 15 16 18 15 13 17 21 24 23
83 87 66 76 77 49 43 59 70 71 49 31 63 53 51 66 41 353 26 64 79 346 42 108 135 25 47 64 83 99 157 156 144 185 179 129 47 94 117 215 250 13 21 37 1 15 75 114 296 93 81 335 319 336 354 16 254 280 282 277 277 283 285 284 279 291 329 287 299 6 340 280 12 356 349 20 29 24 24 21 17 15 12 11 13 15 20 21
95 102 92 92 65 9 11 38 57 71 41 23 80 134 13 35 44 95 36 51 96 149 129 146 152 102 50 56 77 100 204 173 160 189 181 158 168 185 185 189 179 30 6 47 352 7 73 79 348 67 62 293 279 329 322 300 269 279 303 315 314 302 306 302 288 300 346 308 326 18 31 326 345 349 352 13 31 32 24 17 14 11 10 12 11 11 15 18
100 102 92 98 68 359 7 23 31 65 91 312 123 125 53 7 142 119 93 40 39 85 154 154 141 102 58 63 81 56 269 207 255 281 215 198 196 186 188 196 177 174 163 121 56 1 107 107 92 86 68 280 279 315 317 354 26 334 314 31 358 271 313 315 298 305 346 70 58 52 33 343 336 348 358 5 21 35 29 19 17 12 9 9 7 7 10 13